Date,TemperatureHighF,TemperatureAvgF,TemperatureLowF,DewpointHighF,DewpointAvgF,DewpointLowF,HumidityHigh,HumidityAvg,HumidityLow,PressureMaxIn,PressureMinIn,WindSpeedMaxMPH,WindSpeedAvgMPH,GustSpeedMaxMPH,PrecipitationSumIn
2013-1-1,16.5,4.9,-5.5,4.6,-3.9,-10.9,83,68,47,30.49,30.22,0,0,2,0.00
2013-1-2,19.7,8.3,0.4,-1.5,-5.4,-9.0,68,54,37,30.54,30.39,1,0,5,0.00
2013-1-3,20.9,7.4,-2.4,-3.2,-7.8,-11.0,71,51,32,30.63,30.53,1,0,3,0.00
2013-1-4,27.0,16.3,5.9,5.5,-1.7,-8.7,58,45,32,30.58,30.25,1,0,2,0.01
2013-1-5,38.3,24.9,14.8,6.2,-2.2,-7.3,41,31,20,30.35,30.24,4,0,6,0.00
2013-1-6,39.1,22.7,6.1,4.9,-3.4,-11.1,48,32,21,30.36,30.12,1,0,7,0.01
2013-1-7,31.9,22.1,10.1,5.3,-0.9,-7.0,55,37,24,30.12,29.99,1,0,5,0.00
2013-1-8,36.8,27.5,19.7,13.3,6.6,-7.2,63,42,23,30.29,29.97,4,0,5,0.00
2013-1-9,40.3,24.8,10.8,13.5,7.5,2.4,77,49,30,30.45,30.17,3,0,6,0.00
2013-1-10,36.8,24.1,12.4,13.7,5.4,1.4,66,46,25,30.17,29.55,5,1,7,0.00
2013-1-11,24.1,13.3,-0.2,17.1,2.4,-11.5,85,63,31,29.88,29.23,5,2,13,0.00
2013-1-12,11.6,1.3,-7.7,-7.4,-12.7,-17.5,69,52,32,30.21,29.88,2,0,4,0.00
2013-1-13,7.9,-0.9,-9.5,-3.6,-10.9,-17.3,77,62,45,30.35,30.21,2,0,7,0.00
2013-1-14,6.5,-3.4,-11.5,-3.7,-10.7,-17.9,79,70,57,30.46,30.33,1,0,1,0.00
2013-1-15,19.7,7.2,-8.9,7.6,-4.3,-18.5,69,59,41,30.58,30.44,6,1,10,0.00
2013-1-16,35.4,23.0,12.9,16.2,11.1,4.2,74,61,42,30.56,30.37,2,0,5,0.02
2013-1-17,34.1,22.5,9.9,15.8,11.6,5.8,88,64,46,30.57,30.40,2,0,2,0.00
2013-1-18,41.6,29.6,17.4,7.2,0.0,-5.1,53,29,17,30.40,30.15,6,2,10,0.00
2013-1-19,43.4,31.1,23.2,11.4,2.0,-7.2,38,29,18,30.29,30.15,5,1,12,0.00
2013-1-20,41.0,31.5,25.8,5.9,-2.2,-10.1,40,24,15,30.20,30.07,4,1,8,0.00
2013-1-21,42.7,31.1,19.8,12.7,3.4,-9.6,45,31,18,30.17,30.09,7,2,19,0.00
2013-1-22,48.7,34.3,23.9,4.0,-8.6,-20.0,25,16,8,30.21,30.13,8,1,12,0.00
2013-1-23,53.4,40.6,28.8,1.0,-8.8,-18.0,19,12,7,30.18,30.03,8,1,15,0.00
2013-1-24,48.5,37.9,30.6,23.0,10.8,-5.0,70,37,17,30.02,29.82,14,1,20,0.00
2013-1-25,43.9,34.6,26.9,26.0,23.6,20.0,78,65,48,30.06,29.97,10,1,17,0.00
2013-1-26,44.2,33.3,28.4,31.0,24.8,18.0,92,72,51,29.99,29.61,8,0,14,0.00
2013-1-27,40.7,33.9,28.8,28.0,22.6,16.0,88,65,38,29.69,29.58,10,2,22,0.14
2013-1-28,34.3,26.6,17.4,27.0,19.3,9.0,88,74,58,29.62,29.42,10,1,22,0.09
2013-1-29,16.8,10.4,2.1,10.0,-2.1,-10.0,83,59,32,30.06,29.53,16,1,16,0.00
2013-1-30,24.2,20.3,13.1,12.0,6.5,-2.0,73,56,44,30.13,29.96,13,4,26,0.01
2013-1-31,34.6,31.1,27.1,12.0,8.9,7.0,49,40,34,30.19,30.05,11,3,22,0.00